Louisville, KY

10:34 AM EDT on August 23, 2017 (GMT -0400)
Louisville International-Standiford

Weather History for KSDF - January, 2011

Change the Weather History Date:

Wednesday, January 26, 2011

  Actual Average Record
Temperature  
Mean Temperature 31 °F 35 °F  
Max Temperature 33 °F 44 °F 72 °F (1950)
Min Temperature 28 °F 27 °F -6 °F (1948)
Degree Days  
Heating Degree Days 34 30  
Month to date heating degree days 914 780  
Since 1 July heating degree days 2534 2356  
Cooling Degree Days 0 0  
Month to date cooling degree days 0 0  
Year to date cooling degree days 0 0  
Moisture  
Dew Point 24 °F    
Average Humidity 81    
Maximum Humidity 92    
Minimum Humidity 69    
Precipitation  
Precipitation 0.09 in 0.10 in 1.59 in (1902)
Month to date precipitation 1.46 2.70  
Year to date precipitation 1.46 2.70  
Snow  
Snow 1.80 in 0.10 in 4.60 in (1925)
Month to date snowfall 10.0 2.9  
Since 1 July snowfall 16.3 5.7  
Snow Depth 2.00 in    
Sea Level Pressure  
Sea Level Pressure 29.96 in    
Wind  
Wind Speed 11 mph (NNW)    
Max Wind Speed 20 mph    
Max Gust Speed 25 mph    
Visibility 5 miles    
Events Snow    
T = Trace of Precipitation, MM = Missing Value Source: NWS Daily Summary

Daily Weather History Graph

Daily Weather History Graph

Search for Another Location

Airport or City:

Trip Planner

Search our weather history database for the weather conditions in past years. The results will help you decide how hot, cold, wet, or windy it might be!

Date:

Astronomy

Jan. 26, 2011 Rise Set
Actual Time 7:52 AM EST 5:58 PM EST
Civil Twilight 7:24 AM EST 6:26 PM EST
Nautical Twilight 6:52 AM EST 6:58 PM EST
Astronomical Twilight 6:21 AM EST 7:30 PM EST
Moon 1:10 AM EST (1/26) 11:37 AM EST (1/26)
Length of Visible Light 11h 02m
Length of Day
10h 06m
Waning Gibbous, 48% of the Moon is Illuminated
Jan 26
Waning Gibbous
Feb 2
New
Feb 11
First Quarter
Feb 18
Full
Feb 24
Last Quarter

Hourly Weather History & Observations

Time (EST) Temp. Windchill Dew Point Humidity Pressure Visibility Wind Dir Wind Speed Gust Speed Precip Events Conditions
12:56 AM 30.9 °F 21.7 °F 27.0 °F 85% 29.92 in 5.0 mi North 11.5 mph - 0.00 in   Mostly Cloudy
1:56 AM 30.9 °F 20.2 °F 26.1 °F 82% 29.91 in 5.0 mi North 15.0 mph - N/A   Overcast
2:43 AM 30.2 °F 21.3 °F 26.6 °F 86% 29.89 in 4.0 mi North 10.4 mph - 0.00 in Snow Light Snow
2:56 AM 30.0 °F 21.1 °F 26.1 °F 85% 29.91 in 4.0 mi North 10.4 mph - 0.00 in Snow Light Snow
3:46 AM 30.2 °F 21.9 °F 26.6 °F 86% 29.89 in 2.0 mi NNW 9.2 mph - 0.00 in Snow Light Snow
3:56 AM 30.0 °F 20.5 °F 26.1 °F 85% 29.90 in 2.0 mi NNW 11.5 mph - 0.00 in Snow Light Snow
4:02 AM 28.4 °F 18.0 °F 26.6 °F 93% 29.88 in 1.8 mi NNW 12.7 mph - 0.00 in Snow Light Snow
4:13 AM 28.4 °F 18.5 °F 26.6 °F 93% 29.88 in 1.5 mi North 11.5 mph - 0.00 in Snow Light Snow
4:29 AM 28.4 °F 19.1 °F 26.6 °F 93% 29.88 in 1.5 mi North 10.4 mph - 0.01 in Snow Light Snow
4:56 AM 28.9 °F 19.2 °F 26.1 °F 89% 29.89 in 1.0 mi NNW 11.5 mph - 0.02 in Snow Light Snow
5:48 AM 28.4 °F 17.0 °F 26.6 °F 93% 29.88 in 1.5 mi North 15.0 mph - 0.03 in Snow Light Snow
5:56 AM 28.0 °F 16.5 °F 25.0 °F 88% 29.89 in 1.5 mi North 15.0 mph - 0.03 in Snow Light Snow
6:15 AM 28.4 °F 16.6 °F 24.8 °F 86% 29.89 in 1.5 mi North 16.1 mph - 0.01 in Snow Light Snow
6:27 AM 28.4 °F 16.6 °F 24.8 °F 86% 29.89 in 1.5 mi North 16.1 mph - 0.01 in Snow Light Snow
6:41 AM 28.4 °F 18.0 °F 24.8 °F 86% 29.90 in 1.2 mi NNW 12.7 mph - 0.02 in Snow Light Snow
6:56 AM 28.0 °F 17.0 °F 25.0 °F 88% 29.91 in 1.5 mi NNW 13.8 mph - 0.02 in Snow Light Snow
7:56 AM 28.0 °F 17.5 °F 25.0 °F 88% 29.93 in 1.5 mi NNW 12.7 mph - 0.02 in Snow Light Snow
8:04 AM 28.4 °F 17.5 °F 24.8 °F 86% 29.91 in 1.5 mi NNW 13.8 mph - 0.00 in Snow Light Snow
8:35 AM 28.4 °F 16.2 °F 24.8 °F 86% 29.93 in 2.0 mi North 17.3 mph - 0.00 in Snow Light Snow
8:49 AM 28.4 °F 15.8 °F 24.8 °F 86% 29.93 in 3.0 mi NNW 18.4 mph - 0.00 in Snow Light Snow
8:56 AM 28.0 °F 16.1 °F 24.1 °F 85% 29.95 in 4.0 mi NNW 16.1 mph - 0.00 in   Overcast
9:47 AM 28.4 °F 19.7 °F 24.8 °F 86% 29.94 in 4.0 mi NNW 9.2 mph - 0.00 in Snow Light Snow
9:56 AM 28.0 °F 18.1 °F 24.1 °F 85% 29.96 in 4.0 mi NNW 11.5 mph - 0.00 in Snow Light Snow
10:56 AM 28.9 °F 19.2 °F 24.1 °F 82% 29.97 in 5.0 mi NNW 11.5 mph - 0.00 in Snow Light Snow
11:24 AM 28.4 °F 18.0 °F 24.8 °F 86% 29.96 in 5.0 mi NNW 12.7 mph - 0.00 in Snow Light Snow
11:56 AM 28.9 °F 19.2 °F 24.1 °F 82% 29.98 in 6.0 mi NW 11.5 mph - 0.00 in   Haze
12:56 PM 28.9 °F 18.6 °F 23.0 °F 78% 29.99 in 10.0 mi NW 12.7 mph - N/A   Overcast
1:56 PM 28.9 °F 18.6 °F 23.0 °F 78% 30.00 in 10.0 mi NNW 12.7 mph - N/A   Overcast
2:19 PM 28.4 °F 19.1 °F 23.0 °F 80% 29.98 in 9.0 mi NW 10.4 mph - N/A   Overcast
2:56 PM 30.0 °F 22.4 °F 23.0 °F 75% 30.01 in 9.0 mi NNW 8.1 mph - N/A   Overcast
3:56 PM 30.0 °F 21.7 °F 21.9 °F 72% 30.04 in 8.0 mi NNW 9.2 mph - N/A   Overcast
4:56 PM 30.0 °F 21.1 °F 21.9 °F 72% 30.06 in 9.0 mi NW 10.4 mph - N/A   Overcast
5:56 PM 30.0 °F 23.2 °F 21.9 °F 72% 30.08 in 9.0 mi NW 6.9 mph - N/A   Overcast
6:56 PM 30.0 °F 24.1 °F 21.9 °F 72% 30.09 in 10.0 mi West 5.8 mph - N/A   Overcast
7:56 PM 30.9 °F 25.2 °F 21.0 °F 67% 30.10 in 10.0 mi NW 5.8 mph - N/A   Overcast
8:56 PM 30.0 °F 24.1 °F 21.9 °F 72% 30.10 in 10.0 mi West 5.8 mph - N/A   Overcast
9:56 PM 30.0 °F 22.4 °F 21.9 °F 72% 30.11 in 10.0 mi West 8.1 mph - N/A   Overcast
10:56 PM 30.0 °F 22.4 °F 21.9 °F 72% 30.11 in 10.0 mi WSW 8.1 mph - N/A   Overcast
11:56 PM 30.0 °F 23.2 °F 21.9 °F 72% 30.10 in 10.0 mi WNW 6.9 mph - N/A   Overcast